Regional Weather Roundup
Issued by NWS Newport/Morehead, NC

Current Version | Previous Version | Graphics & Text | Print | Product List | Glossary On
Versions: 1 2 3 4 5 6 7 8 9 10 11 12 13 14 15 16 17 18 19 20 21 22 23 24 25 26 27 28 29 30 31 32 33 34 35 36 37 38 39 40 41 42 43 44 45 46 47 48 49 50
000 ASUS42 KMHX 200210 RWRMHX WEATHER ROUNDUP FOR EASTERN NORTH CAROLINA NATIONAL WEATHER SERVICE NEWPORT/MOREHEAD CITY NC 1000 PM EDT TUE AUG 19 2014 NOTE: "FAIR" INDICATES FEW OR NO CLOUDS BELOW 12,000 FEET WITH NO SIGNIFICANT WEATHER AND/OR OBSTRUCTIONS TO VISIBILITY NCZ015>017-031-032-045>047-102-103-200300- NORTH COAST CITY SKY/WX TMP DP RH WIND PRES REMARKS EDENTON PTCLDY 75 73 95 N3 29.87R ELIZABETH CITY CLEAR 76 73 91 N6 29.86R KITTY HAWK MOCLDY 77 74 88 E3 29.85S MANTEO CLOUDY 77 73 88 E5 29.87R $$ NCZ045>047-081-094-103-104-200300- CENTRAL COAST CITY SKY/WX TMP DP RH WIND PRES REMARKS FRISCO PTCLDY 81 74 79 NW3 29.86R SWANQUARTER N/A 77 N/A N/A VRB2 29.82S $$ NCZ095-097-098-100-101-200300- SOUTHERN COAST CITY SKY/WX TMP DP RH WIND PRES REMARKS BEAUFORT CLOUDY 83 78 85 SW7 29.86R CEDAR ISLAND N/A 79 N/A N/A S3 29.91R JACKSONVILLE LGT RAIN 75 73 93 W5 29.86R NEWPORT NOT AVBL PINEY ISLAND CLOUDY 79 75 87 CALM 29.86R WILMINGTON CLOUDY 77 74 90 SW5 29.87R $$ NCZ011>013-027>030-043-044-078>080-089-090>093-098-200300- COASTAL PLAIN CITY SKY/WX TMP DP RH WIND PRES REMARKS AHOSKIE CLEAR 73 71 93 CALM 29.89R CLINTON PTCLDY 74 74 98 CALM 29.88S ELIZABETHTOWN MOCLDY 75 74 97 CALM 29.88R GOLDSBORO PTCLDY 78 77 98 SW7 29.86R GREENVILLE MOCLDY 77 75 94 CALM 29.89S HAVELOCK CLOUDY 79 75 87 CALM 29.86R KENANSVILLE MOCLDY 74 72 92 CALM 29.89R KINSTON PTCLDY 77 73 88 CALM 29.87R NEW BERN CLOUDY 78 74 87 CALM 29.87R RICHLANDS CLOUDY 75 72 88 CALM 29.87S ROANOKE RAPIDS NOT AVBL ROCKY MOUNT PTCLDY 75 73 93 CALM 29.88R WASHINGTON MOCLDY 75 73 93 CALM 29.87S WHITEVILLE PTCLDY 77 74 90 CALM 29.88R $$ AMZ130-135-150-152-154-156-158-170-250-252-270-ANZ085-086-088-633-658-670-200300- MARINE OBSERVATIONS STATION/POSITION TIME TEMP WIND PRES WAVE SWELL AIR SEA DIR/SP/G HT/PER HT/PER (UTC) (F) (DEG/KT/KT) (MB) (FT/S) (FT/S) CHESAPEAKE LIGHT 0100 77 60/ 19/ 21 1011.3 BUOY 44014 0200 78 78 50/ 14/ 16 1010.3 3/ 6 2/ 6 DUCK 0200 77 79 50/ 8/ 8 1010.4 2E DUCK 0200 N/A 2/ 6 OREGON INLET 0200 78 81 30/ 5/ 8 1011.0 BUOY 44095 0200 80 N/A 2/ 6 20E OREGON INLET NOT AVBL HATTERAS CG 0200 81 82 230/ 3/ 4 1011.6 DIAMOND BUOY 0200 81 230/ 10/ 12 1011.0 3/ 7 2/ 7 CAPE LOOKOUT 0100 82 240/ 10/ 14 1010.8 BEAUFORT LAB 0200 82 82 250/ 5/ 11 1010.7 30 SE NEW RIVER 0200 80 82 280/ 16/ 19 1010.5 5/ 7 5 SE WRIGHTSVILL 0100 73 82 40/ 4/ 6 N/A BUOY 41002 0122 82 81 240/ 19/ 21 1014.5 5/ 6 3/11 BUOY 41004 0200 83 83 230/ 14/ 17 1011.5 5/ 6 2/ 8 $$

USA.gov is the U.S. government's official web portal to all federal, state and local government web resources and services.